2022-01-02 00:03:15 r, 21.09m,0000000000Hz,0001461642c,0000003.172s,-014.9C,00002191
2022-01-02 00:13:15 r, 21.09m,0000000000Hz,0001466741c,0000003.183s,-014.9C,00002191
2022-01-02 00:23:17 r, 21.09m,0000000001Hz,0001467688c,0000003.185s,-015.2C,00002191
2022-01-02 00:33:16 r, 21.10m,0000000000Hz,0001476508c,0000003.204s,-015.5C,00002191
2022-01-02 00:43:15 r, 21.10m,0000000001Hz,0001479130c,0000003.210s,-015.8C,00002191
2022-01-02 00:53:17 r, 21.10m,0000000001Hz,0001481297c,0000003.215s,-015.8C,00002191
2022-01-02 01:03:16 r, 21.10m,0000000000Hz,0001483897c,0000003.220s,-015.8C,00002191
2022-01-02 01:13:15 r, 21.10m,0000000000Hz,0001481924c,0000003.216s,-015.8C,00002191
2022-01-02 01:23:16 r, 21.11m,0000000000Hz,0001495006c,0000003.244s,-015.8C,00002191
2022-01-02 01:33:16 r, 21.12m,0000000000Hz,0001502813c,0000003.261s,-015.8C,00002191
2022-01-02 01:43:15 r, 21.12m,0000000000Hz,0001502870c,0000003.261s,-015.5C,00002191
2022-01-02 01:53:16 r, 21.03m,0000000000Hz,0001408961c,0000003.058s,-015.8C,00002191
2022-01-02 02:03:16 r, 20.92m,0000000001Hz,0001263373c,0000002.742s,-015.8C,00002191
2022-01-02 02:13:16 r, 20.96m,0000000000Hz,0001313820c,0000002.851s,-015.8C,00002191
2022-01-02 02:23:16 r, 20.91m,0000000001Hz,0001252704c,0000002.719s,-015.8C,00002191
2022-01-02 02:33:17 r, 20.94m,0000000001Hz,0001286731c,0000002.792s,-015.8C,00002191
2022-01-02 02:43:15 r, 20.93m,0000000000Hz,0001279181c,0000002.776s,-015.8C,00002191
2022-01-02 02:53:17 r, 20.97m,0000000001Hz,0001327471c,0000002.881s,-015.8C,00002191
2022-01-02 03:03:16 r, 21.01m,0000000000Hz,0001370211c,0000002.974s,-016.2C,00002191
2022-01-02 03:13:15 r, 21.05m,0000000000Hz,0001423566c,0000003.089s,-016.5C,00002191
2022-01-02 03:23:16 r, 20.91m,0000000000Hz,0001247347c,0000002.707s,-016.5C,00002191
2022-01-02 03:33:16 r, 20.69m,0000000001Hz,0001019270c,0000002.212s,-016.5C,00002191
2022-01-02 03:43:15 r, 20.72m,0000000000Hz,0001054490c,0000002.288s,-016.5C,00002191
2022-01-02 03:53:16 r, 20.76m,0000000000Hz,0001097120c,0000002.381s,-016.2C,00002191
2022-01-02 04:03:16 r, 20.81m,0000000001Hz,0001142597c,0000002.480s,-016.2C,00002191
2022-01-02 04:13:15 r, 20.70m,0000000000Hz,0001028992c,0000002.233s,-015.8C,00002191
2022-01-02 04:23:16 r, 20.73m,0000000001Hz,0001057022c,0000002.294s,-015.8C,00002191
2022-01-02 04:33:17 r, 20.73m,0000000001Hz,0001058661c,0000002.297s,-015.5C,00002191
2022-01-02 04:43:15 r, 20.85m,0000000001Hz,0001191179c,0000002.585s,-015.5C,00002191
2022-01-02 04:53:17 r, 21.02m,0000000000Hz,0001381148c,0000002.997s,-015.5C,00002191
2022-01-02 05:03:16 r, 21.06m,0000000000Hz,0001426626c,0000003.096s,-015.5C,00002191
2022-01-02 05:13:15 r, 21.02m,0000000001Hz,0001390341c,0000003.017s,-015.2C,00002191
2022-01-02 05:23:17 r, 20.91m,0000000000Hz,0001247640c,0000002.708s,-015.2C,00002191
2022-01-02 05:33:16 r, 20.48m,0000000000Hz,0000849455c,0000001.843s,-015.2C,00002191
2022-01-02 05:43:15 r, 20.19m,0000000001Hz,0000651857c,0000001.415s,-015.2C,00002191
2022-01-02 05:53:16 r, 20.05m,0000000001Hz,0000569677c,0000001.236s,-014.9C,00002191
2022-01-02 06:03:17 r, 19.76m,0000000001Hz,0000438198c,0000000.951s,-014.6C,00002191
2022-01-02 06:13:15 r, 19.87m,0000000001Hz,0000483193c,0000001.049s,-014.2C,00002191
2022-01-02 06:23:15 r, 20.35m,0000000001Hz,0000751816c,0000001.632s,-013.9C,00002191
2022-01-02 06:33:17 r, 20.47m,0000000000Hz,0000844688c,0000001.833s,-013.9C,00002191
2022-01-02 06:43:15 r, 20.17m,0000000000Hz,0000640339c,0000001.390s,-013.6C,00002191
2022-01-02 06:53:15 r, 19.84m,0000000001Hz,0000470225c,0000001.020s,-013.6C,00002191
2022-01-02 07:03:16 r, 19.23m,0000000002Hz,0000268979c,0000000.584s,-013.3C,00002191
2022-01-02 07:13:15 r, 18.65m,0000000003Hz,0000158521c,0000000.344s,-013.3C,00002191
2022-01-02 07:23:17 r, 17.85m,0000000006Hz,0000075909c,0000000.165s,-012.9C,00002191
2022-01-02 07:33:16 r, 16.77m,0000000016Hz,0000028016c,0000000.061s,-012.6C,00002191
2022-01-02 07:43:15 r, 15.17m,0000000072Hz,0000006424c,0000000.014s,-012.3C,00002191
2022-01-02 07:53:16 r, 13.43m,0000000359Hz,0000000000c,0000000.000s,-012.0C,00002191
2022-01-02 08:03:16 r, 11.59m,0000001967Hz,0000000000c,0000000.000s,-011.7C,00002191
2022-01-02 08:13:15 r, 10.05m,0000008066Hz,0000000000c,0000000.000s,-011.7C,00002191
2022-01-02 08:23:15 r, 08.93m,0000022648Hz,0000000000c,0000000.000s,-011.3C,00002191
2022-01-02 08:33:17 r, 08.22m,0000043654Hz,0000000000c,0000000.000s,-011.7C,00002191
2022-01-02 08:43:15 r, 07.65m,0000073897Hz,0000000000c,0000000.000s,-011.7C,00002191
2022-01-02 08:53:15 r, 07.15m,0000116836Hz,0000000000c,0000000.000s,-011.7C,00002191
2022-01-02 09:03:17 r, 05.98m,0000342346Hz,0000000000c,0000000.000s,-011.7C,00002191
2022-01-02 09:13:15 r, 00.00m,0000599946Hz,0000000000c,0000000.000s,-011.0C,00002191
2022-01-02 09:23:17 r, 00.00m,0000454525Hz,0000000000c,0000000.000s,-009.4C,00002191
2022-01-02 09:33:16 r, 00.00m,0000599773Hz,0000000000c,0000000.000s,-008.8C,00002191
2022-01-02 09:43:15 r, 00.00m,0000584426Hz,0000000000c,0000000.000s,-007.8C,00002191
2022-01-02 09:53:16 r, 00.00m,0000599943Hz,0000000000c,0000000.000s,-007.8C,00002191
2022-01-02 10:03:15 r, 00.00m,0000599853Hz,0000000000c,0000000.000s,-007.5C,00002191
2022-01-02 10:13:15 r, 00.00m,0000599742Hz,0000000000c,0000000.000s,-007.1C,00002191
2022-01-02 10:23:16 r, 00.00m,0000599794Hz,0000000000c,0000000.000s,-006.5C,00002191
2022-01-02 10:33:17 r, 00.00m,0000599651Hz,0000000000c,0000000.000s,-006.2C,00002191
2022-01-02 10:43:15 r, 00.00m,0000599736Hz,0000000000c,0000000.000s,-005.2C,00002191
2022-01-02 10:53:15 r, 00.00m,0000599419Hz,0000000000c,0000000.000s,-003.9C,00002191
2022-01-02 11:03:18 r, 00.00m,0000495657Hz,0000000000c,0000000.000s,-004.2C,00002191
2022-01-02 11:13:15 r, 00.00m,0000599582Hz,0000000000c,0000000.000s,-005.2C,00002191
2022-01-02 11:23:17 r, 00.00m,0000599641Hz,0000000000c,0000000.000s,-005.5C,00002191
2022-01-02 11:33:16 r, 00.00m,0000599552Hz,0000000000c,0000000.000s,-004.9C,00002191
2022-01-02 11:43:15 r, 00.00m,0000599413Hz,0000000000c,0000000.000s,-003.6C,00002191
2022-01-02 11:53:17 r, 00.00m,0000599381Hz,0000000000c,0000000.000s,-003.3C,00002191
2022-01-02 12:03:16 r, 00.00m,0000599305Hz,0000000000c,0000000.000s,-003.3C,00002191
2022-01-02 12:13:15 r, 00.00m,0000595343Hz,0000000000c,0000000.000s,-003.0C,00002191
2022-01-02 12:23:16 r, 00.00m,0000500337Hz,0000000000c,0000000.000s,-004.2C,00002191
2022-01-02 12:33:16 r, 00.00m,0000491735Hz,0000000000c,0000000.000s,-004.9C,00002191
2022-01-02 12:43:15 r, 00.00m,0000484950Hz,0000000000c,0000000.000s,-005.2C,00002191
2022-01-02 12:53:15 r, 00.00m,0000478958Hz,0000000000c,0000000.000s,-005.5C,00002191
2022-01-02 13:03:15 r, 00.00m,0000474188Hz,0000000000c,0000000.000s,-005.5C,00002191
2022-01-02 13:13:15 r, 00.00m,0000470901Hz,0000000000c,0000000.000s,-005.5C,00002191
2022-01-02 13:23:16 r, 00.00m,0000464940Hz,0000000000c,0000000.000s,-005.5C,00002191
2022-01-02 13:33:16 r, 00.00m,0000458108Hz,0000000000c,0000000.000s,-005.5C,00002191
2022-01-02 13:43:15 r, 00.00m,0000450805Hz,0000000000c,0000000.000s,-005.5C,00002191
2022-01-02 13:53:17 r, 00.00m,0000461488Hz,0000000000c,0000000.000s,-005.5C,00002191
2022-01-02 14:03:16 r, 00.00m,0000475898Hz,0000000000c,0000000.000s,-005.2C,00002191
2022-01-02 14:13:15 r, 00.00m,0000482423Hz,0000000000c,0000000.000s,-005.2C,00002191
2022-01-02 14:23:15 r, 00.00m,0000498450Hz,0000000000c,0000000.000s,-005.2C,00002191
2022-01-02 14:33:15 r, 00.00m,0000507919Hz,0000000000c,0000000.000s,-004.9C,00002191
2022-01-02 14:43:15 r, 00.00m,0000571920Hz,0000000000c,0000000.000s,-004.9C,00002191
2022-01-02 14:53:15 r, 00.00m,0000513131Hz,0000000000c,0000000.000s,-004.9C,00002191
2022-01-02 15:03:16 r, 00.00m,0000464869Hz,0000000000c,0000000.000s,-004.6C,00002191
2022-01-02 15:13:15 r, 00.00m,0000433694Hz,0000000000c,0000000.000s,-004.6C,00002191
2022-01-02 15:23:15 r, 00.00m,0000454516Hz,0000000000c,0000000.000s,-004.6C,00002191
2022-01-02 15:33:17 r, 05.92m,0000362131Hz,0000000000c,0000000.000s,-004.6C,00002191
2022-01-02 15:43:15 r, 00.00m,0000599623Hz,0000000000c,0000000.000s,-003.9C,00002191
2022-01-02 15:53:15 r, 00.00m,0000571161Hz,0000000000c,0000000.000s,-003.3C,00002191
2022-01-02 16:03:17 r, 06.14m,0000296455Hz,0000000000c,0000000.000s,-002.0C,00002191
2022-01-02 16:13:15 r, 06.48m,0000216321Hz,0000000000c,0000000.000s,-002.3C,00002191
2022-01-02 16:23:15 r, 07.31m,0000100931Hz,0000000000c,0000000.000s,-002.6C,00002191
2022-01-02 16:33:15 r, 08.13m,0000047478Hz,0000000000c,0000000.000s,-003.3C,00002191
2022-01-02 16:43:15 r, 08.89m,0000023550Hz,0000000000c,0000000.000s,-003.9C,00002191
2022-01-02 16:53:15 r, 10.14m,0000007419Hz,0000000000c,0000000.000s,-004.2C,00002191
2022-01-02 17:03:15 r, 11.69m,0000001782Hz,0000000000c,0000000.000s,-004.6C,00002191
2022-01-02 17:13:17 r, 13.69m,0000000283Hz,0000000000c,0000000.000s,-004.2C,00002191
2022-01-02 17:23:15 r, 15.51m,0000000052Hz,0000008813c,0000000.019s,-004.2C,00002191
2022-01-02 17:33:17 r, 16.98m,0000000013Hz,0000034141c,0000000.074s,-004.2C,00002191
2022-01-02 17:43:15 r, 17.91m,0000000006Hz,0000080211c,0000000.174s,-003.9C,00002191
2022-01-02 17:53:15 r, 18.29m,0000000004Hz,0000113120c,0000000.245s,-003.9C,00002191
2022-01-02 18:03:17 r, 18.84m,0000000003Hz,0000187324c,0000000.407s,-003.9C,00002191
2022-01-02 18:13:15 r, 19.36m,0000000002Hz,0000302368c,0000000.656s,-003.9C,00002191
2022-01-02 18:23:15 r, 19.65m,0000000001Hz,0000393540c,0000000.854s,-003.9C,00002191
2022-01-02 18:33:15 r, 19.93m,0000000001Hz,0000510676c,0000001.108s,-003.9C,00002191
2022-01-02 18:43:16 r, 19.96m,0000000000Hz,0000524100c,0000001.137s,-003.9C,00002191
2022-01-02 18:53:15 r, 19.89m,0000000001Hz,0000491415c,0000001.066s,-003.9C,00002191
2022-01-02 19:03:16 r, 19.84m,0000000001Hz,0000468620c,0000001.017s,-003.9C,00002191
2022-01-02 19:13:15 r, 19.95m,0000000001Hz,0000517491c,0000001.123s,-003.9C,00002191
2022-01-02 19:23:15 r, 19.34m,0000000002Hz,0000298679c,0000000.648s,-003.9C,00002191
2022-01-02 19:33:15 r, 19.41m,0000000002Hz,0000315735c,0000000.685s,-003.9C,00002191
2022-01-02 19:43:17 r, 19.31m,0000000002Hz,0000288926c,0000000.627s,-003.6C,00002191
2022-01-02 19:53:15 r, 19.08m,0000000002Hz,0000233659c,0000000.507s,-003.6C,00002191
2022-01-02 20:03:17 r, 19.13m,0000000002Hz,0000243871c,0000000.529s,-003.6C,00002191
2022-01-02 20:13:15 r, 19.21m,0000000002Hz,0000264079c,0000000.573s,-003.3C,00002191
2022-01-02 20:23:15 r, 19.20m,0000000002Hz,0000259258c,0000000.563s,-003.3C,00002191
2022-01-02 20:33:17 r, 18.90m,0000000002Hz,0000196708c,0000000.427s,-003.3C,00002191
2022-01-02 20:43:15 r, 18.79m,0000000003Hz,0000178312c,0000000.387s,-003.0C,00002191
2022-01-02 20:53:15 r, 19.34m,0000000002Hz,0000297428c,0000000.645s,-003.0C,00002191
2022-01-02 21:03:15 r, 20.10m,0000000001Hz,0000598215c,0000001.298s,-003.0C,00002191
2022-01-02 21:13:16 r, 19.79m,0000000001Hz,0000450151c,0000000.977s,-003.0C,00002191
2022-01-02 21:23:15 r, 19.96m,0000000001Hz,0000525047c,0000001.139s,-003.0C,00002191
2022-01-02 21:33:16 r, 20.61m,0000000001Hz,0000949205c,0000002.060s,-003.0C,00002191
2022-01-02 21:43:15 r, 20.83m,0000000001Hz,0001164244c,0000002.527s,-003.3C,00002191
2022-01-02 21:53:15 r, 20.89m,0000000001Hz,0001220652c,0000002.649s,-003.3C,00002191
2022-01-02 22:03:15 r, 20.91m,0000000000Hz,0001244401c,0000002.701s,-003.6C,00002191
2022-01-02 22:13:17 r, 20.92m,0000000001Hz,0001249248c,0000002.711s,-003.6C,00002191
2022-01-02 22:23:15 r, 20.92m,0000000000Hz,0001250816c,0000002.714s,-003.6C,00002191
2022-01-02 22:33:15 r, 20.92m,0000000000Hz,0001261458c,0000002.738s,-003.6C,00002191
2022-01-02 22:43:15 r, 20.93m,0000000001Hz,0001268912c,0000002.754s,-003.6C,00002191
2022-01-02 22:53:15 r, 20.92m,0000000000Hz,0001245525c,0000002.703s,-003.6C,00002191
2022-01-02 23:03:17 r, 20.79m,0000000000Hz,0001125077c,0000002.442s,-003.6C,00002191
2022-01-02 23:13:15 r, 20.69m,0000000000Hz,0001015897c,0000002.205s,-003.9C,00002191
2022-01-02 23:23:15 r, 20.64m,0000000001Hz,0000978370c,0000002.123s,-003.9C,00002191
2022-01-02 23:33:15 r, 20.46m,0000000000Hz,0000827625c,0000001.796s,-003.6C,00002191
2022-01-02 23:43:15 r, 20.51m,0000000000Hz,0000866620c,0000001.881s,-003.6C,00002191
2022-01-02 23:53:15 r, 20.87m,0000000001Hz,0001199867c,0000002.604s,-003.6C,00002191
